Simultaneous Nadir Overpasses (SNOs) Predictions

Prediction of SNOs between GOES-16 and LANDSAT-8 Satellite Orbit:

Table of predicted SNOs for the next 14.0 days since TLE Epoch: 5/9/2020
Index Date Time (GOES-16) GOES-16 Lat,Lon LANDSAT-8 Lat,Lon Distance(km) Time Diff (sec)
1 05/09/2020 15:11:58 0.04, -75.21 0.06, -75.41 22.35 80
2 05/11/2020 15:02:25 0.03, -75.22 -0.54, -72.45 314.72 80
3 05/12/2020 03:23:48 -0.03, -75.19 -0.56, -77.64 278.73 80
4 05/14/2020 03:08:57 -0.02, -75.21 0.11, -74.69 59.26 80
5 05/16/2020 02:56:44 -0.02, -75.23 0.72, -71.73 398.08 80
6 05/16/2020 15:17:59 0.02, -75.27 0.33, -76.90 184.31 80
7 05/18/2020 15:08:26 0.01, -75.31 -0.27, -73.94 155.54 80
8 05/19/2020 03:29:50 -0.01, -75.29 -0.82, -79.13 436.90 80
9 05/20/2020 14:56:14 0.01, -75.35 -0.94, -70.99 495.86 80
10 05/21/2020 03:17:37 -0.01, -75.33 -0.20, -76.17 96.52 80
11 05/23/2020 03:02:45 -0.01, -75.37 0.47, -73.23 244.08 80




NCC Satellite Simultaneous Nadir Overpasses (SNOs) Prediction Service
